Time,TemperatureF,DewpointF,PressureIn,WindDirection,WindDirectionDegrees,WindSpeedMPH,WindSpeedGustMPH,Humidity,HourlyPrecipIn,Conditions,Clouds,dailyrainin,SoftwareType,DateUTC
2013-08-09 00:02:00,65.8,57.7,29.84,North,355,0.0,0.0,75,0.00,,,0.00,WeatherCatV1.21B27,2013-08-09 07:02:00,
2013-08-09 00:07:00,65.9,57.7,29.83,North,351,0.0,0.0,75,0.00,,,0.00,WeatherCatV1.21B27,2013-08-09 07:07:00,
2013-08-09 00:12:00,65.9,57.7,29.83,North,350,0.0,2.0,75,0.00,,,0.00,WeatherCatV1.21B27,2013-08-09 07:12:00,
2013-08-09 00:17:00,66.0,57.8,29.83,North,351,0.0,1.0,75,0.00,,,0.00,WeatherCatV1.21B27,2013-08-09 07:17:00,
2013-08-09 00:22:00,65.9,58.1,29.83,NNW,341,0.0,4.0,76,0.00,,,0.00,WeatherCatV1.21B27,2013-08-09 07:22:00,
2013-08-09 00:27:00,65.9,58.1,29.83,NNW,340,0.0,0.0,76,0.00,,,0.00,WeatherCatV1.21B27,2013-08-09 07:27:00,
2013-08-09 00:32:00,65.9,58.1,29.83,NNW,338,0.0,1.0,76,0.00,,,0.00,WeatherCatV1.21B27,2013-08-09 07:32:00,
2013-08-09 00:37:00,65.8,58.4,29.83,NNW,338,0.0,0.0,77,0.00,,,0.00,WeatherCatV1.21B27,2013-08-09 07:37:00,
2013-08-09 00:42:00,65.7,58.3,29.83,NNW,338,0.0,0.0,77,0.00,,,0.00,WeatherCatV1.21B27,2013-08-09 07:42:00,
2013-08-09 00:47:00,65.6,58.2,29.83,NNW,336,0.0,0.0,77,0.00,,,0.00,WeatherCatV1.21B27,2013-08-09 07:47:00,
2013-08-09 00:52:00,65.4,58.0,29.83,NNW,336,0.0,1.0,77,0.00,,,0.00,WeatherCatV1.21B27,2013-08-09 07:52:00,
2013-08-09 00:57:00,65.3,57.9,29.83,NNW,336,1.0,1.0,77,0.00,,,0.00,WeatherCatV1.21B27,2013-08-09 07:57:00,
2013-08-09 01:02:00,65.2,58.2,29.83,NW,326,0.0,0.0,78,0.00,,,0.00,WeatherCatV1.21B27,2013-08-09 08:02:00,
2013-08-09 01:07:00,65.0,58.0,29.83,NW,325,0.0,0.0,78,0.00,,,0.00,WeatherCatV1.21B27,2013-08-09 08:07:00,
2013-08-09 01:12:00,64.9,57.9,29.83,NW,324,0.0,1.0,78,0.00,,,0.00,WeatherCatV1.21B27,2013-08-09 08:12:00,
2013-08-09 01:17:00,64.8,57.8,29.82,NW,320,0.0,1.0,78,0.00,,,0.00,WeatherCatV1.21B27,2013-08-09 08:17:00,
2013-08-09 01:22:00,64.6,57.6,29.82,NW,318,0.0,2.0,78,0.00,,,0.00,WeatherCatV1.21B27,2013-08-09 08:22:00,
2013-08-09 01:27:00,64.4,57.4,29.82,NW,316,0.0,1.0,78,0.00,,,0.00,WeatherCatV1.21B27,2013-08-09 08:27:00,
2013-08-09 01:32:00,64.3,57.6,29.82,NW,306,0.0,1.0,79,0.00,,,0.00,WeatherCatV1.21B27,2013-08-09 08:32:00,
2013-08-09 01:37:00,64.1,57.5,29.82,WNW,289,0.0,2.0,79,0.00,,,0.00,WeatherCatV1.21B27,2013-08-09 08:37:00,
2013-08-09 01:42:00,64.0,57.3,29.82,West,279,0.0,3.0,79,0.00,,,0.00,WeatherCatV1.21B27,2013-08-09 08:42:00,
2013-08-09 01:47:00,63.8,57.2,29.82,West,278,0.0,0.0,79,0.00,,,0.00,WeatherCatV1.21B27,2013-08-09 08:47:00,
2013-08-09 01:52:00,63.7,57.1,29.83,West,277,0.0,1.0,79,0.00,,,0.00,WeatherCatV1.21B27,2013-08-09 08:52:00,
2013-08-09 01:57:00,63.5,56.9,29.83,West,271,0.0,0.0,79,0.00,,,0.00,WeatherCatV1.21B27,2013-08-09 08:57:00,
2013-08-09 02:02:00,63.3,56.7,29.82,West,271,0.0,0.0,79,0.00,,,0.00,WeatherCatV1.21B27,2013-08-09 09:02:00,
2013-08-09 02:07:00,63.1,56.8,29.83,West,271,0.0,0.0,80,0.00,,,0.00,WeatherCatV1.21B27,2013-08-09 09:07:00,
2013-08-09 02:12:00,63.0,56.7,29.83,West,271,0.0,0.0,80,0.00,,,0.00,WeatherCatV1.21B27,2013-08-09 09:12:00,
2013-08-09 02:17:00,62.9,56.6,29.83,West,271,0.0,1.0,80,0.00,,,0.00,WeatherCatV1.21B27,2013-08-09 09:17:00,
2013-08-09 02:22:00,62.8,56.5,29.82,West,271,0.0,0.0,80,0.00,,,0.00,WeatherCatV1.21B27,2013-08-09 09:22:00,
2013-08-09 02:27:00,62.6,56.3,29.83,West,271,0.0,0.0,80,0.00,,,0.00,WeatherCatV1.21B27,2013-08-09 09:27:00,
2013-08-09 02:32:00,62.5,56.6,29.83,West,271,0.0,1.0,81,0.00,,,0.00,WeatherCatV1.21B27,2013-08-09 09:32:00,
2013-08-09 02:37:00,62.4,56.5,29.83,West,272,0.0,1.0,81,0.00,,,0.00,WeatherCatV1.21B27,2013-08-09 09:37:00,
2013-08-09 02:42:00,62.3,56.4,29.83,West,271,0.0,0.0,81,0.00,,,0.00,WeatherCatV1.21B27,2013-08-09 09:42:00,
2013-08-09 02:47:00,62.2,56.3,29.83,West,272,0.0,1.0,81,0.00,,,0.00,WeatherCatV1.21B27,2013-08-09 09:47:00,
2013-08-09 02:52:00,62.0,56.4,29.83,West,272,0.0,0.0,82,0.00,,,0.00,WeatherCatV1.21B27,2013-08-09 09:52:00,
2013-08-09 02:57:00,61.9,56.3,29.83,West,271,0.0,0.0,82,0.00,,,0.00,WeatherCatV1.21B27,2013-08-09 09:57:00,
2013-08-09 03:02:00,61.7,56.1,29.83,West,273,0.0,0.0,82,0.00,,,0.00,WeatherCatV1.21B27,2013-08-09 10:02:00,
2013-08-09 03:07:00,61.6,56.0,29.83,West,273,0.0,0.0,82,0.00,,,0.00,WeatherCatV1.21B27,2013-08-09 10:07:00,
2013-08-09 03:12:00,61.4,56.2,29.83,West,273,0.0,1.0,83,0.00,,,0.00,WeatherCatV1.21B27,2013-08-09 10:12:00,
2013-08-09 03:17:00,61.3,56.1,29.83,West,279,0.0,1.0,83,0.00,,,0.00,WeatherCatV1.21B27,2013-08-09 10:17:00,
2013-08-09 03:22:00,61.2,56.0,29.83,West,279,0.0,0.0,83,0.00,,,0.00,WeatherCatV1.21B27,2013-08-09 10:22:00,
2013-08-09 03:27:00,61.1,55.9,29.83,West,279,0.0,0.0,83,0.00,,,0.00,WeatherCatV1.21B27,2013-08-09 10:27:00,
2013-08-09 03:32:00,60.9,55.7,29.83,West,279,0.0,1.0,83,0.00,,,0.00,WeatherCatV1.21B27,2013-08-09 10:32:00,
2013-08-09 03:37:00,60.8,55.9,29.83,West,281,0.0,1.0,84,0.00,,,0.00,WeatherCatV1.21B27,2013-08-09 10:37:00,
2013-08-09 03:42:00,60.7,55.8,29.83,West,281,0.0,0.0,84,0.00,,,0.00,WeatherCatV1.21B27,2013-08-09 10:42:00,
2013-08-09 03:47:00,60.5,55.6,29.83,West,281,0.0,0.0,84,0.00,,,0.00,WeatherCatV1.21B27,2013-08-09 10:47:00,
2013-08-09 03:52:00,60.4,55.5,29.83,WNW,290,0.0,3.0,84,0.00,,,0.00,WeatherCatV1.21B27,2013-08-09 10:52:00,
2013-08-09 03:57:00,60.3,55.4,29.83,WNW,290,0.0,0.0,84,0.00,,,0.00,WeatherCatV1.21B27,2013-08-09 10:57:00,
2013-08-09 04:02:00,60.1,55.2,29.82,WNW,290,0.0,1.0,84,0.00,,,0.00,WeatherCatV1.21B27,2013-08-09 11:02:00,
2013-08-09 04:07:00,60.0,55.5,29.82,WNW,291,0.0,0.0,85,0.00,,,0.00,WeatherCatV1.21B27,2013-08-09 11:07:00,
2013-08-09 04:12:00,59.9,55.4,29.82,WNW,291,0.0,0.0,85,0.00,,,0.00,WeatherCatV1.21B27,2013-08-09 11:12:00,
2013-08-09 04:17:00,59.8,55.3,29.82,WNW,291,0.0,0.0,85,0.00,,,0.00,WeatherCatV1.21B27,2013-08-09 11:17:00,
2013-08-09 04:22:00,59.6,55.1,29.82,WNW,291,0.0,0.0,85,0.00,,,0.00,WeatherCatV1.21B27,2013-08-09 11:22:00,
2013-08-09 04:27:00,59.5,55.0,29.82,WNW,291,0.0,0.0,85,0.00,,,0.00,WeatherCatV1.21B27,2013-08-09 11:27:00,
2013-08-09 04:32:00,59.3,54.8,29.83,WNW,291,0.0,0.0,85,0.00,,,0.00,WeatherCatV1.21B27,2013-08-09 11:32:00,
2013-08-09 04:37:00,59.2,54.7,29.82,WNW,291,0.0,0.0,85,0.00,,,0.00,WeatherCatV1.21B27,2013-08-09 11:37:00,
2013-08-09 04:42:00,59.1,54.6,29.83,WNW,291,0.0,0.0,85,0.00,,,0.00,WeatherCatV1.21B27,2013-08-09 11:42:00,
2013-08-09 04:47:00,59.0,54.5,29.83,WNW,291,0.0,0.0,85,0.00,,,0.00,WeatherCatV1.21B27,2013-08-09 11:47:00,
2013-08-09 04:52:00,58.8,54.3,29.83,WNW,291,0.0,0.0,85,0.00,,,0.00,WeatherCatV1.21B27,2013-08-09 11:52:00,
2013-08-09 04:57:00,58.6,53.8,29.83,WNW,291,0.0,0.0,84,0.00,,,0.00,WeatherCatV1.21B27,2013-08-09 11:57:00,
2013-08-09 05:02:00,58.3,53.5,29.83,WNW,291,0.0,0.0,84,0.00,,,0.00,WeatherCatV1.21B27,2013-08-09 12:02:00,
2013-08-09 05:07:00,58.1,53.3,29.83,WNW,291,0.0,0.0,84,0.00,,,0.00,WeatherCatV1.21B27,2013-08-09 12:07:00,
2013-08-09 05:12:00,57.9,53.1,29.83,WNW,291,0.0,0.0,84,0.00,,,0.00,WeatherCatV1.21B27,2013-08-09 12:12:00,
2013-08-09 05:17:00,57.7,52.9,29.83,WNW,291,0.0,0.0,84,0.00,,,0.00,WeatherCatV1.21B27,2013-08-09 12:17:00,
2013-08-09 05:22:00,57.5,52.7,29.83,WNW,291,0.0,0.0,84,0.00,,,0.00,WeatherCatV1.21B27,2013-08-09 12:22:00,
2013-08-09 05:27:00,57.3,52.8,29.83,WNW,291,0.0,0.0,85,0.00,,,0.00,WeatherCatV1.21B27,2013-08-09 12:27:00,
2013-08-09 05:32:00,57.1,52.6,29.83,WNW,291,0.0,0.0,85,0.00,,,0.00,WeatherCatV1.21B27,2013-08-09 12:32:00,
2013-08-09 05:37:00,56.9,52.4,29.83,WNW,291,0.0,0.0,85,0.00,,,0.00,WeatherCatV1.21B27,2013-08-09 12:37:00,
2013-08-09 05:42:00,56.7,52.2,29.83,WNW,291,0.0,0.0,85,0.00,,,0.00,WeatherCatV1.21B27,2013-08-09 12:42:00,
2013-08-09 05:47:00,56.6,52.5,29.84,WNW,291,0.0,0.0,86,0.00,,,0.00,WeatherCatV1.21B27,2013-08-09 12:47:00,
2013-08-09 05:52:00,56.4,52.3,29.84,WNW,291,0.0,0.0,86,0.00,,,0.00,WeatherCatV1.21B27,2013-08-09 12:52:00,
2013-08-09 05:57:00,56.2,51.8,29.84,WNW,291,0.0,0.0,85,0.00,,,0.00,WeatherCatV1.21B27,2013-08-09 12:57:00,
2013-08-09 06:02:00,56.1,52.0,29.84,WNW,291,0.0,0.0,86,0.00,,,0.00,WeatherCatV1.21B27,2013-08-09 13:02:00,
2013-08-09 06:07:00,56.0,51.9,29.84,WNW,291,0.0,0.0,86,0.00,,,0.00,WeatherCatV1.21B27,2013-08-09 13:07:00,
2013-08-09 06:12:00,55.9,52.1,29.84,WNW,291,0.0,0.0,87,0.00,,,0.00,WeatherCatV1.21B27,2013-08-09 13:12:00,
2013-08-09 06:17:00,55.9,52.4,29.85,WNW,291,0.0,0.0,88,0.00,,,0.00,WeatherCatV1.21B27,2013-08-09 13:17:00,
2013-08-09 06:22:00,55.8,52.3,29.85,WNW,291,0.0,0.0,88,0.00,,,0.00,WeatherCatV1.21B27,2013-08-09 13:22:00,
2013-08-09 06:27:00,55.8,52.3,29.85,WNW,291,0.0,0.0,88,0.00,,,0.00,WeatherCatV1.21B27,2013-08-09 13:27:00,
2013-08-09 06:32:00,55.8,52.6,29.85,WNW,291,0.0,0.0,89,0.00,,,0.00,WeatherCatV1.21B27,2013-08-09 13:32:00,
2013-08-09 06:37:00,55.8,52.6,29.85,WNW,291,0.0,0.0,89,0.00,,,0.00,WeatherCatV1.21B27,2013-08-09 13:37:00,
2013-08-09 06:42:00,55.9,53.0,29.85,WNW,291,0.0,0.0,90,0.00,,,0.00,WeatherCatV1.21B27,2013-08-09 13:42:00,
2013-08-09 06:47:00,56.0,53.1,29.85,WNW,291,0.0,0.0,90,0.00,,,0.00,WeatherCatV1.21B27,2013-08-09 13:47:00,
2013-08-09 06:52:00,56.0,53.1,29.85,WNW,291,0.0,0.0,90,0.00,,,0.00,WeatherCatV1.21B27,2013-08-09 13:52:00,
2013-08-09 06:57:00,56.1,53.2,29.85,WNW,291,0.0,0.0,90,0.00,,,0.00,WeatherCatV1.21B27,2013-08-09 13:57:00,
2013-08-09 07:02:00,56.3,53.7,29.85,WNW,291,0.0,0.0,91,0.00,,,0.00,WeatherCatV1.21B27,2013-08-09 14:02:00,
2013-08-09 07:07:00,56.5,53.9,29.86,WNW,291,0.0,0.0,91,0.00,,,0.00,WeatherCatV1.21B27,2013-08-09 14:07:00,
2013-08-09 07:12:00,56.8,54.5,29.85,WNW,291,0.0,0.0,92,0.00,,,0.00,WeatherCatV1.21B27,2013-08-09 14:12:00,
2013-08-09 07:17:00,57.2,54.9,29.86,WNW,291,0.0,0.0,92,0.00,,,0.00,WeatherCatV1.21B27,2013-08-09 14:17:00,
2013-08-09 07:22:00,57.6,55.3,29.86,WNW,291,0.0,0.0,92,0.00,,,0.00,WeatherCatV1.21B27,2013-08-09 14:22:00,
2013-08-09 07:27:00,58.0,55.7,29.86,WNW,291,0.0,1.0,92,0.00,,,0.00,WeatherCatV1.21B27,2013-08-09 14:27:00,
2013-08-09 07:32:00,58.2,55.9,29.87,WNW,291,0.0,0.0,92,0.00,,,0.00,WeatherCatV1.21B27,2013-08-09 14:32:00,
2013-08-09 07:37:00,58.6,56.0,29.87,WNW,288,0.0,3.0,91,0.00,,,0.00,WeatherCatV1.21B27,2013-08-09 14:37:00,
2013-08-09 07:42:00,59.2,56.6,29.87,WNW,288,0.0,0.0,91,0.00,,,0.00,WeatherCatV1.21B27,2013-08-09 14:42:00,
2013-08-09 07:47:00,59.8,56.9,29.87,WNW,289,0.0,0.0,90,0.00,,,0.00,WeatherCatV1.21B27,2013-08-09 14:47:00,
2013-08-09 07:52:00,60.3,57.0,29.87,WNW,289,0.0,0.0,89,0.00,,,0.00,WeatherCatV1.21B27,2013-08-09 14:52:00,
2013-08-09 07:57:00,61.0,57.4,29.87,WNW,289,0.0,1.0,88,0.00,,,0.00,WeatherCatV1.21B27,2013-08-09 14:57:00,
2013-08-09 08:02:00,61.6,57.0,29.87,West,280,0.0,0.0,85,0.00,,,0.00,WeatherCatV1.21B27,2013-08-09 15:02:00,
2013-08-09 08:07:00,62.2,57.3,29.88,West,277,0.0,1.0,84,0.00,,,0.00,WeatherCatV1.21B27,2013-08-09 15:07:00,
2013-08-09 08:12:00,62.9,57.0,29.88,West,264,0.0,1.0,81,0.00,,,0.00,WeatherCatV1.21B27,2013-08-09 15:12:00,
2013-08-09 08:17:00,63.5,57.6,29.88,West,264,0.0,0.0,81,0.00,,,0.00,WeatherCatV1.21B27,2013-08-09 15:17:00,
2013-08-09 08:22:00,64.2,58.2,29.88,West,264,0.0,1.0,81,0.00,,,0.00,WeatherCatV1.21B27,2013-08-09 15:22:00,
2013-08-09 08:27:00,64.8,58.1,29.88,West,263,0.0,2.0,79,0.00,,,0.00,WeatherCatV1.21B27,2013-08-09 15:27:00,
2013-08-09 08:32:00,65.3,57.9,29.88,West,262,0.0,1.0,77,0.00,,,0.00,WeatherCatV1.21B27,2013-08-09 15:32:00,
2013-08-09 08:37:00,66.0,58.6,29.88,West,261,0.0,3.0,77,0.00,,,0.00,WeatherCatV1.21B27,2013-08-09 15:37:00,
2013-08-09 08:42:00,66.3,57.8,29.88,WSW,257,1.0,3.0,74,0.00,,,0.00,WeatherCatV1.21B27,2013-08-09 15:42:00,
2013-08-09 08:47:00,66.7,58.5,29.88,WSW,254,0.0,0.0,75,0.00,,,0.00,WeatherCatV1.21B27,2013-08-09 15:47:00,
2013-08-09 08:52:00,67.5,58.5,29.88,WSW,254,0.0,0.0,73,0.00,,,0.00,WeatherCatV1.21B27,2013-08-09 15:52:00,
2013-08-09 08:57:00,67.9,58.5,29.88,WSW,254,0.0,1.0,72,0.00,,,0.00,WeatherCatV1.21B27,2013-08-09 15:57:00,
2013-08-09 09:02:00,68.4,59.0,29.88,WSW,257,0.0,1.0,72,0.00,,,0.00,WeatherCatV1.21B27,2013-08-09 16:02:00,
2013-08-09 09:07:00,68.7,58.1,29.88,West,276,0.0,2.0,69,0.00,,,0.00,WeatherCatV1.21B27,2013-08-09 16:07:00,
2013-08-09 09:12:00,68.9,59.1,29.88,West,276,0.0,0.0,71,0.00,,,0.00,WeatherCatV1.21B27,2013-08-09 16:12:00,
2013-08-09 09:17:00,69.4,59.6,29.88,West,275,0.0,1.0,71,0.00,,,0.00,WeatherCatV1.21B27,2013-08-09 16:17:00,
2013-08-09 09:18:00,69.5,60.1,29.88,West,275,0.0,0.0,72,0.00,,,0.00,WeatherCatV1.21B27,2013-08-09 16:18:00,
2013-08-09 09:23:00,70.0,58.9,29.88,West,275,0.0,0.0,68,0.00,,,0.00,WeatherCatV1.21B27,2013-08-09 16:23:00,
2013-08-09 09:28:00,70.4,58.5,29.88,WNW,287,0.0,4.0,66,0.00,,,0.00,WeatherCatV1.21B27,2013-08-09 16:28:00,
2013-08-09 09:33:00,71.0,58.6,29.88,WNW,283,0.0,3.0,65,0.00,,,0.00,WeatherCatV1.21B27,2013-08-09 16:33:00,
2013-08-09 09:38:00,71.4,59.0,29.88,West,280,0.0,1.0,65,0.00,,,0.00,WeatherCatV1.21B27,2013-08-09 16:38:00,
2013-08-09 09:43:00,71.8,58.5,29.88,WNW,288,0.0,3.0,63,0.00,,,0.00,WeatherCatV1.21B27,2013-08-09 16:43:00,
2013-08-09 09:48:00,71.8,59.0,29.88,WNW,289,0.0,1.0,64,0.00,,,0.00,WeatherCatV1.21B27,2013-08-09 16:48:00,
2013-08-09 09:53:00,72.4,59.5,29.88,West,278,0.0,3.0,64,0.00,,,0.00,WeatherCatV1.21B27,2013-08-09 16:53:00,
2013-08-09 09:58:00,72.7,59.8,29.88,West,277,1.0,1.0,64,0.00,,,0.00,WeatherCatV1.21B27,2013-08-09 16:58:00,
2013-08-09 10:03:00,73.0,60.1,29.88,WNW,286,0.0,1.0,64,0.00,,,0.00,WeatherCatV1.21B27,2013-08-09 17:03:00,
2013-08-09 10:08:00,73.4,60.0,29.88,WSW,256,0.0,4.0,63,0.00,,,0.00,WeatherCatV1.21B27,2013-08-09 17:08:00,
2013-08-09 10:13:00,73.3,59.0,29.88,West,259,0.0,1.0,61,0.00,,,0.00,WeatherCatV1.21B27,2013-08-09 17:13:00,
2013-08-09 10:18:00,74.0,59.2,29.88,West,259,0.0,1.0,60,0.00,,,0.00,WeatherCatV1.21B27,2013-08-09 17:18:00,
2013-08-09 10:23:00,73.9,59.6,29.88,NW,322,0.0,1.0,61,0.00,,,0.00,WeatherCatV1.21B27,2013-08-09 17:23:00,
2013-08-09 10:28:00,74.5,59.2,29.88,NW,322,0.0,0.0,59,0.00,,,0.00,WeatherCatV1.21B27,2013-08-09 17:28:00,
2013-08-09 10:33:00,75.1,58.8,29.88,NW,309,0.0,2.0,57,0.00,,,0.00,WeatherCatV1.21B27,2013-08-09 17:33:00,
2013-08-09 10:38:00,75.0,58.7,29.88,NNW,333,0.0,4.0,57,0.00,,,0.00,WeatherCatV1.21B27,2013-08-09 17:38:00,
2013-08-09 10:43:00,74.9,58.6,29.88,NNW,328,2.0,5.0,57,0.00,,,0.00,WeatherCatV1.21B27,2013-08-09 17:43:00,
2013-08-09 10:48:00,75.1,60.2,29.88,NW,316,1.0,1.0,60,0.00,,,0.00,WeatherCatV1.21B27,2013-08-09 17:48:00,
2013-08-09 10:53:00,75.4,58.6,29.88,WSW,241,0.0,3.0,56,0.00,,,0.00,WeatherCatV1.21B27,2013-08-09 17:53:00,
2013-08-09 10:58:00,75.9,59.5,29.88,West,260,0.0,1.0,57,0.00,,,0.00,WeatherCatV1.21B27,2013-08-09 17:58:00,
2013-08-09 11:03:00,76.7,62.2,29.88,West,265,0.0,3.0,61,0.00,,,0.00,WeatherCatV1.21B27,2013-08-09 18:03:00,
2013-08-09 11:08:00,77.0,58.5,29.88,West,260,0.0,1.0,53,0.00,,,0.00,WeatherCatV1.21B27,2013-08-09 18:08:00,
2013-08-09 11:13:00,77.3,59.8,29.88,WSW,257,0.0,2.0,55,0.00,,,0.00,WeatherCatV1.21B27,2013-08-09 18:13:00,
2013-08-09 11:18:00,77.6,58.6,29.87,SW,229,1.0,5.0,52,0.00,,,0.00,WeatherCatV1.21B27,2013-08-09 18:18:00,
2013-08-09 11:23:00,78.2,60.7,29.87,West,261,0.0,3.0,55,0.00,,,0.00,WeatherCatV1.21B27,2013-08-09 18:23:00,
2013-08-09 11:28:00,78.1,59.5,29.87,WSW,253,0.0,5.0,53,0.00,,,0.00,WeatherCatV1.21B27,2013-08-09 18:28:00,
2013-08-09 11:33:00,78.3,58.7,29.87,NW,325,0.0,4.0,51,0.00,,,0.00,WeatherCatV1.21B27,2013-08-09 18:33:00,
2013-08-09 11:38:00,78.4,59.8,29.87,West,263,1.0,4.0,53,0.00,,,0.00,WeatherCatV1.21B27,2013-08-09 18:38:00,
2013-08-09 11:43:00,78.6,60.5,29.87,SW,214,0.0,0.0,54,0.00,,,0.00,WeatherCatV1.21B27,2013-08-09 18:43:00,
2013-08-09 11:48:00,79.3,61.7,29.87,NW,321,0.0,1.0,55,0.00,,,0.00,WeatherCatV1.21B27,2013-08-09 18:48:00,
2013-08-09 11:53:00,79.2,58.9,29.87,NNW,329,0.0,0.0,50,0.00,,,0.00,WeatherCatV1.21B27,2013-08-09 18:53:00,
2013-08-09 11:58:00,79.2,60.0,29.87,West,265,0.0,2.0,52,0.00,,,0.00,WeatherCatV1.21B27,2013-08-09 18:58:00,
2013-08-09 12:03:00,79.8,60.6,29.86,NW,322,4.0,4.0,52,0.00,,,0.00,WeatherCatV1.21B27,2013-08-09 19:03:00,
2013-08-09 12:08:00,80.0,60.8,29.86,NNW,333,0.0,0.0,52,0.00,,,0.00,WeatherCatV1.21B27,2013-08-09 19:08:00,
2013-08-09 12:13:00,80.5,61.8,29.86,West,269,2.0,2.0,53,0.00,,,0.00,WeatherCatV1.21B27,2013-08-09 19:13:00,
2013-08-09 12:18:00,81.0,60.6,29.86,NW,313,0.0,4.0,50,0.00,,,0.00,WeatherCatV1.21B27,2013-08-09 19:18:00,
2013-08-09 12:23:00,81.2,60.2,29.86,NW,323,0.0,2.0,49,0.00,,,0.00,WeatherCatV1.21B27,2013-08-09 19:23:00,
2013-08-09 12:28:00,81.7,61.8,29.86,WSW,243,1.0,6.0,51,0.00,,,0.00,WeatherCatV1.21B27,2013-08-09 19:28:00,
2013-08-09 12:33:00,82.1,62.2,29.86,WSW,246,1.0,1.0,51,0.00,,,0.00,WeatherCatV1.21B27,2013-08-09 19:33:00,
2013-08-09 12:38:00,82.4,62.4,29.86,NW,313,0.0,2.0,51,0.00,,,0.00,WeatherCatV1.21B27,2013-08-09 19:38:00,
2013-08-09 12:43:00,82.7,61.0,29.86,NNW,340,4.0,6.0,48,0.00,,,0.00,WeatherCatV1.21B27,2013-08-09 19:43:00,
2013-08-09 12:49:00,82.5,62.0,29.86,NW,323,1.0,4.0,50,0.00,,,0.00,WeatherCatV1.21B27,2013-08-09 19:49:00,
2013-08-09 12:54:00,82.7,61.0,29.86,WNW,303,1.0,1.0,48,0.00,,,0.00,WeatherCatV1.21B27,2013-08-09 19:54:00,
2013-08-09 12:59:00,82.9,60.6,29.86,WSW,243,1.0,6.0,47,0.00,,,0.00,WeatherCatV1.21B27,2013-08-09 19:59:00,
2013-08-09 13:04:00,83.0,61.2,29.86,West,268,0.0,3.0,48,0.00,,,0.00,WeatherCatV1.21B27,2013-08-09 20:04:00,
2013-08-09 13:09:00,83.6,64.1,29.86,WSW,252,0.0,4.0,52,0.00,,,0.00,WeatherCatV1.21B27,2013-08-09 20:09:00,
2013-08-09 13:14:00,83.9,60.2,29.85,WSW,238,0.0,5.0,45,0.00,,,0.00,WeatherCatV1.21B27,2013-08-09 20:14:00,
2013-08-09 13:19:00,83.9,61.5,29.85,NW,318,0.0,5.0,47,0.00,,,0.00,WeatherCatV1.21B27,2013-08-09 20:19:00,
2013-08-09 13:24:00,84.2,62.9,29.85,NNW,331,0.0,5.0,49,0.00,,,0.00,WeatherCatV1.21B27,2013-08-09 20:24:00,
2013-08-09 13:29:00,84.4,60.1,29.85,WSW,240,3.0,6.0,44,0.00,,,0.00,WeatherCatV1.21B27,2013-08-09 20:29:00,
2013-08-09 13:34:00,84.5,61.4,29.85,SW,217,0.0,2.0,46,0.00,,,0.00,WeatherCatV1.21B27,2013-08-09 20:34:00,
2013-08-09 13:39:00,84.9,61.2,29.85,SW,226,1.0,3.0,45,0.00,,,0.00,WeatherCatV1.21B27,2013-08-09 20:39:00,
2013-08-09 13:44:00,85.3,62.1,29.84,SW,230,0.0,1.0,46,0.00,,,0.00,WeatherCatV1.21B27,2013-08-09 20:44:00,
2013-08-09 13:49:00,85.6,60.5,29.84,WSW,250,0.0,3.0,43,0.00,,,0.00,WeatherCatV1.21B27,2013-08-09 20:49:00,
2013-08-09 13:54:00,86.0,60.9,29.84,NW,321,0.0,1.0,43,0.00,,,0.00,WeatherCatV1.21B27,2013-08-09 20:54:00,
2013-08-09 13:59:00,86.6,63.9,29.84,NW,311,1.0,1.0,47,0.00,,,0.00,WeatherCatV1.21B27,2013-08-09 20:59:00,
2013-08-09 14:04:00,86.8,62.9,29.84,NW,319,0.0,3.0,45,0.00,,,0.00,WeatherCatV1.21B27,2013-08-09 21:04:00,
2013-08-09 14:09:00,86.8,60.2,29.84,West,276,0.0,4.0,41,0.00,,,0.00,WeatherCatV1.21B27,2013-08-09 21:09:00,
2013-08-09 14:14:00,86.9,61.0,29.84,WNW,300,0.0,3.0,42,0.00,,,0.00,WeatherCatV1.21B27,2013-08-09 21:14:00,
2013-08-09 14:19:00,87.3,64.0,29.84,West,265,0.0,3.0,46,0.00,,,0.00,WeatherCatV1.21B27,2013-08-09 21:19:00,
2013-08-09 14:24:00,87.9,63.2,29.83,WSW,248,0.0,3.0,44,0.00,,,0.00,WeatherCatV1.21B27,2013-08-09 21:24:00,
2013-08-09 14:29:00,87.8,62.5,29.84,NNW,329,5.0,6.0,43,0.00,,,0.00,WeatherCatV1.21B27,2013-08-09 21:29:00,
2013-08-09 14:34:00,87.9,59.8,29.83,WNW,284,0.0,2.0,39,0.00,,,0.00,WeatherCatV1.21B27,2013-08-09 21:34:00,
2013-08-09 14:39:00,88.3,60.9,29.83,NW,314,1.0,3.0,40,0.00,,,0.00,WeatherCatV1.21B27,2013-08-09 21:39:00,
2013-08-09 14:44:00,88.4,57.2,29.84,WSW,238,0.0,1.0,35,0.00,,,0.00,WeatherCatV1.21B27,2013-08-09 21:44:00,
2013-08-09 14:49:00,88.6,59.0,29.83,SW,230,0.0,1.0,37,0.00,,,0.00,WeatherCatV1.21B27,2013-08-09 21:49:00,
2013-08-09 14:54:00,88.9,60.7,29.83,WSW,240,0.0,1.0,39,0.00,,,0.00,WeatherCatV1.21B27,2013-08-09 21:54:00,
2013-08-09 14:59:00,89.2,61.7,29.83,WSW,240,0.0,3.0,40,0.00,,,0.00,WeatherCatV1.21B27,2013-08-09 21:59:00,
2013-08-09 15:04:00,89.5,58.2,29.83,WSW,242,0.0,1.0,35,0.00,,,0.00,WeatherCatV1.21B27,2013-08-09 22:04:00,
2013-08-09 15:09:00,89.4,55.6,29.83,NNW,331,0.0,1.0,32,0.00,,,0.00,WeatherCatV1.21B27,2013-08-09 22:09:00,
2013-08-09 15:14:00,89.7,60.7,29.82,WSW,254,0.0,0.0,38,0.00,,,0.00,WeatherCatV1.21B27,2013-08-09 22:14:00,
2013-08-09 15:19:00,90.0,57.0,29.82,WNW,286,0.0,0.0,33,0.00,,,0.00,WeatherCatV1.21B27,2013-08-09 22:19:00,
2013-08-09 15:24:00,90.3,58.1,29.82,NW,312,1.0,4.0,34,0.00,,,0.00,WeatherCatV1.21B27,2013-08-09 22:24:00,
2013-08-09 15:29:00,90.3,54.6,29.82,NNW,336,0.0,0.0,30,0.00,,,0.00,WeatherCatV1.21B27,2013-08-09 22:29:00,
2013-08-09 15:34:00,90.4,55.6,29.82,NW,319,2.0,2.0,31,0.00,,,0.00,WeatherCatV1.21B27,2013-08-09 22:34:00,
2013-08-09 15:39:00,90.4,57.3,29.82,NNW,329,0.0,4.0,33,0.00,,,0.00,WeatherCatV1.21B27,2013-08-09 22:39:00,
2013-08-09 15:44:00,90.6,59.2,29.82,NW,318,0.0,2.0,35,0.00,,,0.00,WeatherCatV1.21B27,2013-08-09 22:44:00,
2013-08-09 15:49:00,91.0,56.1,29.81,West,272,2.0,2.0,31,0.00,,,0.00,WeatherCatV1.21B27,2013-08-09 22:49:00,
2013-08-09 15:54:00,91.1,57.9,29.81,West,281,0.0,2.0,33,0.00,,,0.00,WeatherCatV1.21B27,2013-08-09 22:54:00,
2013-08-09 15:59:00,91.4,56.5,29.81,WNW,284,0.0,1.0,31,0.00,,,0.00,WeatherCatV1.21B27,2013-08-09 22:59:00,
2013-08-09 16:04:00,91.7,59.3,29.81,WSW,248,0.0,0.0,34,0.00,,,0.00,WeatherCatV1.21B27,2013-08-09 23:04:00,
2013-08-09 16:09:00,91.7,55.8,29.81,WSW,248,0.0,1.0,30,0.00,,,0.00,WeatherCatV1.21B27,2013-08-09 23:09:00,
2013-08-09 16:14:00,91.9,55.0,29.81,WSW,248,0.0,0.0,29,0.00,,,0.00,WeatherCatV1.21B27,2013-08-09 23:14:00,
2013-08-09 16:19:00,92.2,59.7,29.81,NW,307,2.0,2.0,34,0.00,,,0.00,WeatherCatV1.21B27,2013-08-09 23:19:00,
2013-08-09 16:24:00,92.1,54.3,29.81,NW,314,0.0,1.0,28,0.00,,,0.00,WeatherCatV1.21B27,2013-08-09 23:24:00,
2013-08-09 16:29:00,92.0,56.1,29.81,WSW,244,0.0,5.0,30,0.00,,,0.00,WeatherCatV1.21B27,2013-08-09 23:29:00,
2013-08-09 16:34:00,92.0,60.4,29.80,WNW,302,3.0,3.0,35,0.00,,,0.00,WeatherCatV1.21B27,2013-08-09 23:34:00,
2013-08-09 16:39:00,91.7,53.9,29.80,NNW,344,3.0,3.0,28,0.00,,,0.00,WeatherCatV1.21B27,2013-08-09 23:39:00,
2013-08-09 16:44:00,91.7,55.8,29.80,NNW,343,1.0,2.0,30,0.00,,,0.00,WeatherCatV1.21B27,2013-08-09 23:44:00,
2013-08-09 16:49:00,91.6,51.8,29.80,NNW,330,0.0,1.0,26,0.00,,,0.00,WeatherCatV1.21B27,2013-08-09 23:49:00,
2013-08-09 16:54:00,91.1,51.4,29.80,North,355,2.0,4.0,26,0.00,,,0.00,WeatherCatV1.21B27,2013-08-09 23:54:00,
2013-08-09 16:59:00,90.8,54.1,29.80,North,350,0.0,4.0,29,0.00,,,0.00,WeatherCatV1.21B27,2013-08-09 23:59:00,
2013-08-09 17:04:00,90.6,54.9,29.80,NW,325,4.0,5.0,30,0.00,,,0.00,WeatherCatV1.21B27,2013-08-10 00:04:00,
2013-08-09 17:09:00,90.6,55.8,29.80,NW,325,0.0,1.0,31,0.00,,,0.00,WeatherCatV1.21B27,2013-08-10 00:09:00,
2013-08-09 17:14:00,90.9,52.2,29.80,NNW,337,1.0,3.0,27,0.00,,,0.00,WeatherCatV1.21B27,2013-08-10 00:14:00,
2013-08-09 17:19:00,90.8,52.2,29.80,NNW,327,0.0,2.0,27,0.00,,,0.00,WeatherCatV1.21B27,2013-08-10 00:19:00,
2013-08-09 17:24:00,90.6,53.9,29.80,NNW,328,0.0,3.0,29,0.00,,,0.00,WeatherCatV1.21B27,2013-08-10 00:24:00,
2013-08-09 17:29:00,90.2,53.6,29.80,NNW,331,0.0,3.0,29,0.00,,,0.00,WeatherCatV1.21B27,2013-08-10 00:29:00,
2013-08-09 17:34:00,90.2,55.4,29.80,NNW,339,1.0,4.0,31,0.00,,,0.00,WeatherCatV1.21B27,2013-08-10 00:34:00,
2013-08-09 17:39:00,90.2,52.6,29.80,NNW,339,0.0,3.0,28,0.00,,,0.00,WeatherCatV1.21B27,2013-08-10 00:39:00,
2013-08-09 17:44:00,90.3,57.2,29.80,NNW,339,2.0,2.0,33,0.00,,,0.00,WeatherCatV1.21B27,2013-08-10 00:44:00,
2013-08-09 17:49:00,90.4,53.8,29.79,NNW,338,2.0,2.0,29,0.00,,,0.00,WeatherCatV1.21B27,2013-08-10 00:49:00,
2013-08-09 17:54:00,90.3,52.7,29.79,NNW,340,0.0,2.0,28,0.00,,,0.00,WeatherCatV1.21B27,2013-08-10 00:54:00,
2013-08-09 17:59:00,90.3,54.6,29.79,NNW,340,0.0,1.0,30,0.00,,,0.00,WeatherCatV1.21B27,2013-08-10 00:59:00,
2013-08-09 18:04:00,90.4,52.8,29.79,NNW,340,0.0,3.0,28,0.00,,,0.00,WeatherCatV1.21B27,2013-08-10 01:04:00,
2013-08-09 18:09:00,90.3,55.5,29.79,NNW,340,0.0,2.0,31,0.00,,,0.00,WeatherCatV1.21B27,2013-08-10 01:09:00,
2013-08-09 18:14:00,90.3,55.5,29.79,NNW,340,0.0,1.0,31,0.00,,,0.00,WeatherCatV1.21B27,2013-08-10 01:14:00,
2013-08-09 18:19:00,90.1,54.4,29.79,NNW,340,1.0,2.0,30,0.00,,,0.00,WeatherCatV1.21B27,2013-08-10 01:19:00,
2013-08-09 18:24:00,90.1,57.1,29.79,NNW,340,0.0,0.0,33,0.00,,,0.00,WeatherCatV1.21B27,2013-08-10 01:24:00,
2013-08-09 18:29:00,89.9,56.9,29.79,NNW,340,0.0,1.0,33,0.00,,,0.00,WeatherCatV1.21B27,2013-08-10 01:29:00,
2013-08-09 18:34:00,89.6,55.8,29.79,NNW,340,1.0,1.0,32,0.00,,,0.00,WeatherCatV1.21B27,2013-08-10 01:34:00,
2013-08-09 18:39:00,89.3,56.4,29.79,NNW,340,0.0,0.0,33,0.00,,,0.00,WeatherCatV1.21B27,2013-08-10 01:39:00,
2013-08-09 18:44:00,89.2,56.3,29.79,NNW,340,0.0,0.0,33,0.00,,,0.00,WeatherCatV1.21B27,2013-08-10 01:44:00,
2013-08-09 18:49:00,89.1,56.2,29.79,NNW,340,0.0,0.0,33,0.00,,,0.00,WeatherCatV1.21B27,2013-08-10 01:49:00,
2013-08-09 18:54:00,88.8,56.8,29.79,NNW,340,0.0,0.0,34,0.00,,,0.00,WeatherCatV1.21B27,2013-08-10 01:54:00,
2013-08-09 18:59:00,88.6,56.6,29.79,NNW,339,0.0,5.0,34,0.00,,,0.00,WeatherCatV1.21B27,2013-08-10 01:59:00,
2013-08-09 19:04:00,88.1,57.0,29.79,NNW,339,0.0,0.0,35,0.00,,,0.00,WeatherCatV1.21B27,2013-08-10 02:04:00,
2013-08-09 19:09:00,87.7,57.4,29.80,NNW,339,0.0,1.0,36,0.00,,,0.00,WeatherCatV1.21B27,2013-08-10 02:09:00,
2013-08-09 19:14:00,87.2,58.5,29.80,NNW,338,0.0,0.0,38,0.00,,,0.00,WeatherCatV1.21B27,2013-08-10 02:14:00,
2013-08-09 19:19:00,86.4,58.5,29.80,NNW,338,0.0,0.0,39,0.00,,,0.00,WeatherCatV1.21B27,2013-08-10 02:19:00,
2013-08-09 19:24:00,85.8,59.3,29.80,NNW,339,0.0,0.0,41,0.00,,,0.00,WeatherCatV1.21B27,2013-08-10 02:24:00,
2013-08-09 19:29:00,85.1,59.4,29.80,NNW,339,0.0,0.0,42,0.00,,,0.00,WeatherCatV1.21B27,2013-08-10 02:29:00,
2013-08-09 19:34:00,84.1,59.2,29.80,NNW,339,0.0,0.0,43,0.00,,,0.00,WeatherCatV1.21B27,2013-08-10 02:34:00,
2013-08-09 19:39:00,83.3,59.7,29.80,NNW,339,0.0,0.0,45,0.00,,,0.00,WeatherCatV1.21B27,2013-08-10 02:39:00,
2013-08-09 19:44:00,82.7,59.8,29.81,NNW,339,0.0,0.0,46,0.00,,,0.00,WeatherCatV1.21B27,2013-08-10 02:44:00,
2013-08-09 19:49:00,81.8,59.6,29.81,NNW,338,0.0,0.0,47,0.00,,,0.00,WeatherCatV1.21B27,2013-08-10 02:49:00,
2013-08-09 19:54:00,81.3,59.1,29.81,NNW,338,0.0,0.0,47,0.00,,,0.00,WeatherCatV1.21B27,2013-08-10 02:54:00,
2013-08-09 19:59:00,80.6,58.5,29.81,NNW,339,0.0,1.0,47,0.00,,,0.00,WeatherCatV1.21B27,2013-08-10 02:59:00,
2013-08-09 20:04:00,79.8,57.8,29.81,NNW,338,0.0,0.0,47,0.00,,,0.00,WeatherCatV1.21B27,2013-08-10 03:04:00,
2013-08-09 20:09:00,79.3,57.9,29.81,NNW,339,0.0,0.0,48,0.00,,,0.00,WeatherCatV1.21B27,2013-08-10 03:09:00,
2013-08-09 20:14:00,78.9,58.1,29.81,NNW,339,0.0,0.0,49,0.00,,,0.00,WeatherCatV1.21B27,2013-08-10 03:14:00,
2013-08-09 20:19:00,78.4,58.2,29.81,NNW,338,0.0,0.0,50,0.00,,,0.00,WeatherCatV1.21B27,2013-08-10 03:19:00,
2013-08-09 20:24:00,78.0,58.4,29.82,NNW,338,0.0,0.0,51,0.00,,,0.00,WeatherCatV1.21B27,2013-08-10 03:24:00,
2013-08-09 20:29:00,77.6,58.6,29.82,NNW,339,0.0,0.0,52,0.00,,,0.00,WeatherCatV1.21B27,2013-08-10 03:29:00,
2013-08-09 20:34:00,77.2,58.2,29.82,NNW,339,0.0,0.0,52,0.00,,,0.00,WeatherCatV1.21B27,2013-08-10 03:34:00,
2013-08-09 20:39:00,76.8,58.9,29.82,NNW,339,0.0,0.0,54,0.00,,,0.00,WeatherCatV1.21B27,2013-08-10 03:39:00,
2013-08-09 20:44:00,76.2,58.8,29.82,NNW,338,0.0,0.0,55,0.00,,,0.00,WeatherCatV1.21B27,2013-08-10 03:44:00,
2013-08-09 20:49:00,75.7,58.9,29.82,NNW,339,0.0,0.0,56,0.00,,,0.00,WeatherCatV1.21B27,2013-08-10 03:49:00,
2013-08-09 20:54:00,75.2,58.4,29.83,NNW,339,0.0,0.0,56,0.00,,,0.00,WeatherCatV1.21B27,2013-08-10 03:54:00,
2013-08-09 20:59:00,74.8,58.5,29.83,NNW,338,0.0,0.0,57,0.00,,,0.00,WeatherCatV1.21B27,2013-08-10 03:59:00,
2013-08-09 21:01:00,74.8,58.5,29.83,NNW,339,0.0,0.0,57,0.00,,,0.00,WeatherCatV1.21B27,2013-08-10 04:01:00,
2013-08-09 21:06:00,74.4,58.6,29.83,NNW,339,0.0,0.0,58,0.00,,,0.00,WeatherCatV1.21B27,2013-08-10 04:06:00,
2013-08-09 21:11:00,73.9,58.2,29.83,NNW,338,0.0,0.0,58,0.00,,,0.00,WeatherCatV1.21B27,2013-08-10 04:11:00,
2013-08-09 21:16:00,73.5,58.3,29.84,NNW,338,0.0,0.0,59,0.00,,,0.00,WeatherCatV1.21B27,2013-08-10 04:16:00,
2013-08-09 21:21:00,73.2,58.0,29.84,NNW,339,0.0,0.0,59,0.00,,,0.00,WeatherCatV1.21B27,2013-08-10 04:21:00,
2013-08-09 21:26:00,72.9,58.7,29.84,NNW,339,0.0,0.0,61,0.00,,,0.00,WeatherCatV1.21B27,2013-08-10 04:26:00,
2013-08-09 21:31:00,72.6,58.4,29.84,NNW,339,0.0,0.0,61,0.00,,,0.00,WeatherCatV1.21B27,2013-08-10 04:31:00,
2013-08-09 21:36:00,72.3,58.1,29.84,NNW,339,0.0,0.0,61,0.00,,,0.00,WeatherCatV1.21B27,2013-08-10 04:36:00,
2013-08-09 21:41:00,71.9,58.2,29.84,NNW,339,0.0,0.0,62,0.00,,,0.00,WeatherCatV1.21B27,2013-08-10 04:41:00,
2013-08-09 21:46:00,71.6,58.3,29.85,NNW,339,0.0,0.0,63,0.00,,,0.00,WeatherCatV1.21B27,2013-08-10 04:46:00,
2013-08-09 21:51:00,71.3,57.6,29.85,NNW,339,0.0,0.0,62,0.00,,,0.00,WeatherCatV1.21B27,2013-08-10 04:51:00,
2013-08-09 21:56:00,71.1,57.8,29.85,NNW,339,0.0,0.0,63,0.00,,,0.00,WeatherCatV1.21B27,2013-08-10 04:56:00,
2013-08-09 22:01:00,70.8,57.6,29.85,NNW,339,0.0,0.0,63,0.00,,,0.00,WeatherCatV1.21B27,2013-08-10 05:01:00,
2013-08-09 22:06:00,70.6,57.8,29.85,NNW,339,0.0,0.0,64,0.00,,,0.00,WeatherCatV1.21B27,2013-08-10 05:06:00,
2013-08-09 22:11:00,70.4,57.6,29.85,NNW,339,0.0,0.0,64,0.00,,,0.00,WeatherCatV1.21B27,2013-08-10 05:11:00,
2013-08-09 22:16:00,70.2,57.4,29.85,NNW,339,0.0,0.0,64,0.00,,,0.00,WeatherCatV1.21B27,2013-08-10 05:16:00,
2013-08-09 22:21:00,70.0,57.2,29.85,NNW,339,0.0,0.0,64,0.00,,,0.00,WeatherCatV1.21B27,2013-08-10 05:21:00,
2013-08-09 22:26:00,69.8,57.5,29.86,NNW,338,0.0,0.0,65,0.00,,,0.00,WeatherCatV1.21B27,2013-08-10 05:26:00,
2013-08-09 22:31:00,69.5,57.2,29.86,NNW,339,0.0,0.0,65,0.00,,,0.00,WeatherCatV1.21B27,2013-08-10 05:31:00,
2013-08-09 22:36:00,69.4,57.5,29.85,NNW,339,0.0,0.0,66,0.00,,,0.00,WeatherCatV1.21B27,2013-08-10 05:36:00,
2013-08-09 22:41:00,69.2,57.3,29.86,NNW,339,0.0,0.0,66,0.00,,,0.00,WeatherCatV1.21B27,2013-08-10 05:41:00,
2013-08-09 22:46:00,69.0,57.2,29.86,NNW,339,0.0,0.0,66,0.00,,,0.00,WeatherCatV1.21B27,2013-08-10 05:46:00,
2013-08-09 22:51:00,68.8,57.4,29.86,NNW,339,0.0,0.0,67,0.00,,,0.00,WeatherCatV1.21B27,2013-08-10 05:51:00,
2013-08-09 22:56:00,68.7,57.3,29.86,NNW,338,0.0,0.0,67,0.00,,,0.00,WeatherCatV1.21B27,2013-08-10 05:56:00,
2013-08-09 23:01:00,68.6,57.6,29.86,NNW,338,0.0,0.0,68,0.00,,,0.00,WeatherCatV1.21B27,2013-08-10 06:01:00,
2013-08-09 23:06:00,68.5,57.5,29.86,NNW,338,0.0,0.0,68,0.00,,,0.00,WeatherCatV1.21B27,2013-08-10 06:06:00,
2013-08-09 23:11:00,68.5,57.5,29.86,NNW,338,0.0,0.0,68,0.00,,,0.00,WeatherCatV1.21B27,2013-08-10 06:11:00,
2013-08-09 23:16:00,68.5,57.9,29.86,NNW,338,0.0,1.0,69,0.00,,,0.00,WeatherCatV1.21B27,2013-08-10 06:16:00,
2013-08-09 23:21:00,68.5,57.9,29.86,NNW,338,0.0,0.0,69,0.00,,,0.00,WeatherCatV1.21B27,2013-08-10 06:21:00,
2013-08-09 23:26:00,68.5,58.3,29.86,NNW,338,0.0,0.0,70,0.00,,,0.00,WeatherCatV1.21B27,2013-08-10 06:26:00,
2013-08-09 23:31:00,68.5,58.3,29.86,NNW,337,0.0,0.0,70,0.00,,,0.00,WeatherCatV1.21B27,2013-08-10 06:31:00,
2013-08-09 23:36:00,68.5,58.7,29.87,NNW,337,0.0,0.0,71,0.00,,,0.00,WeatherCatV1.21B27,2013-08-10 06:36:00,
2013-08-09 23:41:00,68.3,58.5,29.87,NNW,337,0.0,0.0,71,0.00,,,0.00,WeatherCatV1.21B27,2013-08-10 06:41:00,
2013-08-09 23:46:00,68.2,58.4,29.87,NNW,337,0.0,0.0,71,0.00,,,0.00,WeatherCatV1.21B27,2013-08-10 06:46:00,
2013-08-09 23:51:00,68.0,58.6,29.87,NNW,337,0.0,0.0,72,0.00,,,0.00,WeatherCatV1.21B27,2013-08-10 06:51:00,
2013-08-09 23:56:00,67.8,58.4,29.87,NNW,337,0.0,0.0,72,0.00,,,0.00,WeatherCatV1.21B27,2013-08-10 06:56:00,